Regional Weather Roundup
Issued by NWS Burlington, VT

Home | Current Version | Previous Version | Text Only | Print | Product List | Glossary On
Versions: 1 2 3 4 5 6 7 8 9 10 11 12 13 14 15 16 17 18 19 20 21 22 23 24 25 26 27 28 29 30 31 32 33 34 35 36 37 38 39 40 41 42 43 44 45 46 47 48 49 50
000
ASUS41 KBTV 202330
RWRBTV
VERMONT REGIONAL WEATHER ROUNDUP
NATIONAL WEATHER SERVICE BURLINGTON VT
700 PM EDT MON OCT 20 2014

NOTE: "FAIR" INDICATES FEW OR NO CLOUDS BELOW 12,000 FEET WITH NO
SIGNIFICANT WEATHER AND/OR OBSTRUCTIONS TO VISIBILITY.

* THESE REPORTS ARE NOT UNDER NWS QUALITY CONTROL AND/OR DO NOT
  REPORT WEATHER SUCH AS PRECIPITATION AND FOG.

VTZ001>019-210000-
_____VERMONT_____


CITY           SKY/WX    TMP DP  RH WIND       PRES   REMARKS
BURLINGTON     CLOUDY    47  36  65 E6        29.93S
MONTPELIER     CLOUDY    44  36  73 S3        29.97R
MORRISVILLE    CLOUDY    45  36  70 CALM      29.95R
ST. JOHNSBURY*   N/A     47  33  58 MISG      29.93R
MIDDLEBURY*    CLOUDY    49  36  60 S3        29.93R
RUTLAND*       CLOUDY    48  37  66 SE7       29.93S
SPRINGFIELD    CLOUDY    47  39  74 CALM      29.95R
HIGHGATE*      CLOUDY    44  40  87 CALM      29.94R
NEWPORT*       CLOUDY   N/A N/A N/A CALM      29.94S
BENNINGTON     CLOUDY    49  34  56 S3        29.94S
GALLUP MILLS*    N/A     41 N/A N/A MISG        N/A
UNION VILLAGE*   N/A     45 N/A N/A MISG        N/A
MT. MANSFIELD*   N/A     32 N/A N/A CALM        N/A

_____LAKE CHAMPLAIN_____


CITY           SKY/WX    TMP DP  RH WIND       PRES   REMARKS
BURTON ISLAND*   N/A     48  37  66 SE8         N/A
COLCHESTER RF*   N/A     50  37  62 SE9         N/A
DIAMOND ISL*     N/A     50  39  66 SE3         N/A

$$

NYZ007-026>031-035-052-083-210000-
_____NORTHERN NEW YORK_____


CITY           SKY/WX    TMP DP  RH WIND       PRES   REMARKS
PLATTSBURGH    CLOUDY    45  40  82 CALM      29.92S
SARANAC LAKE   CLOUDY    41  36  82 CALM      29.87S
MASSENA        CLOUDY    45  44  97 E5        29.92R
OGDENSBURG*    DRIZZLE   45  45 100 E3        29.89R
POTSDAM*       CLOUDY    45  45 100 CALM      29.90S
PARISHVILLE*     N/A     46 N/A N/A SE9         N/A
WATERTOWN      LGT RAIN  52  39  61 S5        29.87R
FT DRUM        CLOUDY    49  38  63 S6        29.87R
ALBANY         CLOUDY    52  35  52 S6        29.94S
GLENS FALLS    CLOUDY    51  35  54 S10       29.94R

$$
NHZ002-005-011-210000-
_____NEW HAMPSHIRE_____


CITY           SKY/WX    TMP DP  RH WIND       PRES   REMARKS
LEBANON        CLOUDY    48  38  68 CALM      29.93R
KEENE          MOCLDY    50  32  50 S7        29.96S
MT WASHINGTON  MOCLDY    21  16  79 W37         N/A  WCI   1
PLYMOUTH       CLOUDY    45  43  93 CALM      29.95R
WHITEFIELD     CLOUDY    45  33  63 CALM      29.94R

$$

_____REGIONAL QUEBEC LOCATIONS_____


CITY           SKY/WX    TMP DP  RH WIND       PRES   REMARKS
MONTREAL       CLOUDY    43  36  75 NE6       29.93
QUEBEC CITY    CLOUDY    37  28  70 W8        29.92
SHERBROOKE     LGT RAIN  41  36  81 W6        29.94R

_____REGIONAL ONTARIO LOCATIONS_____


CITY           SKY/WX    TMP DP  RH WIND       PRES   REMARKS
OTTAWA         LGT RAIN  41  39  93 NE7       29.91R

______KEY______
VSB  - VISIBILITY IN MILES
WCI  - WIND CHILL INDEX
HX   - HEAT INDEX
$$
NNNN



USA.gov is the U.S. government's official web portal to all federal, state and local government web resources and services.